RH
19 23 25 24 22 21 22 22 19 21 26 25 24 29 29 27 25 24 25 21 21 26 28 28 31 30 30 33 38 43 47 50 52 56 60 60 61 62 63 62 62 62 58 58 62 64 65 67 68 70 71 72 75 77 81 85 88 89 89 88 87 79 71 65 62 63 68 71 70 71 71 67 59 51 47 46 47 50 56 63 67 68 68 68 70 72
20 23 23 20 18 18 20 22 21 21 24 27 28 28 29 29 25 23 23 20 19 25 25 25 29 29 28 30 35 43 49 51 51 56 60 59 60 61 62 62 61 60 57 57 61 63 64 66 67 70 71 72 74 76 80 82 84 87 88 87 86 83 78 69 60 58 58 56 55 60 62 62 63 55 46 48 48 47 55 62 65 66 67 67 68 70
25 23 20 17 17 16 18 20 22 22 20 24 28 29 30 29 26 25 23 20 20 24 24 24 26 26 25 27 34 42 47 49 47 50 55 57 60 61 61 62 61 61 61 59 60 62 64 65 67 69 71 71 72 75 78 79 82 86 87 88 88 85 79 73 66 57 50 43 38 43 46 47 57 56 47 51 48 43 53 62 65 66 66 67 67 69
27 23 18 17 16 15 17 19 21 22 21 21 24 29 31 28 28 27 23 21 20 21 23 23 24 23 22 26 34 40 42 44 45 46 49 53 58 58 57 58 60 62 63 62 60 60 62 64 66 68 70 71 71 73 75 76 80 84 86 88 87 84 79 75 71 60 50 45 41 43 44 42 49 52 45 46 43 39 48 59 65 66 65 67 67 69
23 21 18 17 17 15 16 18 20 21 21 20 21 26 29 28 28 26 22 21 19 19 19 21 27 26 22 25 30 35 40 43 44 46 49 52 53 54 55 56 58 59 61 62 61 59 59 62 65 67 69 70 70 71 73 75 77 79 83 86 83 81 78 75 71 66 62 61 59 61 65 62 60 60 58 56 54 46 45 56 66 66 65 67 67 68
22 20 19 18 18 16 16 16 18 19 19 20 20 21 25 28 28 26 25 23 24 25 20 21 33 33 25 23 23 31 43 46 45 48 50 52 53 54 56 56 56 57 58 59 59 58 58 60 64 67 69 69 68 70 72 73 75 76 81 83 82 81 79 76 72 71 71 70 71 73 78 79 75 75 72 62 57 54 46 55 69 67 64 66 66 67
24 21 20 19 18 17 17 16 16 18 19 20 19 18 21 25 27 28 27 27 30 29 22 20 31 35 29 24 21 28 43 47 46 48 48 49 52 53 53 54 55 55 56 57 57 57 57 60 62 64 67 68 67 69 70 71 73 75 80 82 81 82 80 78 76 75 75 75 78 75 73 76 74 75 71 52 48 54 48 50 64 66 65 67 66 67
26 24 23 21 19 18 18 17 16 17 17 18 19 19 22 24 27 28 27 30 29 26 24 20 23 31 31 26 23 28 39 46 48 50 48 47 49 50 50 51 52 53 54 56 57 57 57 58 60 62 66 66 65 67 68 70 72 75 80 81 80 81 80 79 78 76 75 76 79 77 76 78 72 67 63 49 46 55 52 51 60 64 66 67 66 67
24 27 25 23 23 21 19 16 16 17 16 17 20 21 22 23 26 25 26 29 27 28 33 26 21 30 31 25 26 30 35 42 48 50 48 46 47 48 48 47 48 50 51 53 54 55 56 57 59 61 63 65 64 65 67 69 71 75 79 79 79 80 81 79 78 77 76 75 75 76 79 81 74 67 65 58 54 61 62 62 64 65 68 68 67 67
23 23 23 23 24 22 20 16 15 16 16 16 20 21 21 22 24 24 27 29 29 37 41 31 24 30 32 24 24 31 34 35 42 46 46 45 46 46 46 45 46 47 49 50 50 52 54 56 58 59 60 63 63 64 67 69 70 74 77 79 79 81 82 81 78 77 77 76 76 78 81 81 76 73 74 72 70 70 70 70 70 68 68 69 69 68
18 17 19 22 22 20 19 17 15 15 16 17 20 22 23 24 24 25 26 28 36 44 41 32 25 28 34 27 22 28 32 30 33 39 43 44 45 45 45 43 43 45 47 48 48 49 52 54 56 57 58 61 62 63 66 68 69 72 75 78 80 81 82 82 79 77 78 78 79 79 79 79 76 75 77 78 80 78 74 74 74 71 69 70 69 69
16 17 19 21 20 19 20 20 17 15 16 18 19 21 27 30 30 32 32 33 43 44 34 29 25 27 34 30 20 21 25 25 26 31 37 41 43 44 44 42 41 43 45 46 47 47 49 53 55 56 57 59 61 63 64 66 67 70 73 77 80 81 81 82 80 79 80 81 83 81 79 77 75 76 77 77 81 79 74 76 78 73 72 71 70 70
20 19 19 20 19 19 21 22 21 18 17 18 19 22 30 36 40 43 42 41 43 38 28 25 25 28 32 27 20 20 21 20 21 24 29 34 39 42 43 42 41 41 42 44 46 46 48 52 53 54 56 59 61 63 63 64 65 68 73 76 80 81 81 82 82 81 82 84 84 83 80 77 76 76 75 74 76 76 73 76 78 74 73 73 72 71
24 21 18 20 20 20 20 22 25 24 21 20 21 25 32 38 45 48 45 42 40 34 26 22 25 29 28 22 19 18 18 17 18 20 24 28 33 37 40 41 40 41 41 43 45 46 47 50 51 52 54 58 61 62 62 63 64 67 72 75 78 80 80 82 82 82 83 84 83 80 79 79 78 77 77 75 75 75 73 74 74 72 74 75 73 71
29 28 23 21 22 23 21 20 21 22 23 23 19 22 29 33 39 43 40 39 38 32 26 24 27 29 26 23 19 16 14 15 15 16 20 26 29 32 36 37 39 40 40 42 43 45 46 48 50 50 53 57 59 60 60 61 64 68 71 75 77 80 81 81 82 83 83 83 82 80 80 81 79 78 79 77 75 75 73 72 71 70 71 73 72 70
34 32 25 23 24 24 24 21 18 19 23 23 19 23 29 27 29 34 32 32 32 30 28 27 27 24 21 21 17 14 15 13 14 15 17 22 26 29 32 34 37 38 38 40 42 44 45 46 48 49 52 55 57 58 59 60 65 68 71 74 76 78 80 81 82 83 82 83 83 82 81 82 80 78 80 79 75 74 72 71 70 68 66 69 71 68
40 34 26 26 24 22 26 25 22 22 23 23 24 27 25 21 25 31 32 32 31 33 32 27 25 22 19 19 15 14 17 14 14 15 14 17 22 28 31 32 34 36 37 39 41 43 45 46 47 48 49 52 55 57 58 61 66 68 69 73 75 77 79 81 82 82 82 83 84 83 81 83 83 80 81 79 75 76 76 73 70 69 67 67 68 67
41 38 28 26 26 23 26 26 22 20 21 24 26 24 22 23 25 28 33 36 35 36 33 26 24 22 21 22 16 14 17 16 15 16 14 15 20 25 27 30 33 34 35 38 40 42 44 45 46 46 47 49 52 55 58 62 66 67 69 70 72 76 78 80 81 81 83 84 83 84 83 83 84 82 81 80 78 80 82 78 74 74 72 68 68 68
37 42 33 29 32 28 24 24 24 21 19 21 22 19 23 31 33 33 37 39 37 37 34 28 25 21 20 20 16 15 16 15 15 17 16 15 18 21 22 27 32 33 34 38 40 42 43 42 44 45 45 46 49 53 57 61 63 64 66 67 69 72 74 76 78 79 83 84 83 84 84 83 83 82 81 82 83 83 82 80 79 77 74 71 70 70
35 45 41 34 34 31 25 24 25 24 21 20 20 19 21 26 31 33 34 34 36 39 37 32 27 22 19 16 13 14 14 13 15 19 19 16 17 20 21 24 30 33 35 37 37 39 41 40 41 43 43 43 46 51 55 57 59 60 63 66 67 69 72 74 74 78 82 83 82 84 85 85 83 83 83 84 85 84 81 80 80 78 77 74 72 71
37 48 49 39 31 30 28 25 25 25 25 24 25 25 23 22 25 28 29 28 31 37 38 35 32 23 17 16 13 13 13 13 14 18 21 19 16 19 22 24 28 32 35 36 35 36 38 39 38 40 42 42 44 49 52 53 55 57 59 62 65 66 70 72 72 76 80 80 81 84 85 86 85 84 84 85 85 83 82 83 81 79 79 77 73 72
43 50 53 46 37 33 28 25 27 28 28 28 27 27 25 24 27 31 34 30 26 31 34 34 34 25 16 17 15 11 12 13 13 15 18 18 16 18 22 24 28 33 33 34 34 34 36 38 37 38 41 42 43 46 49 49 52 54 56 59 62 64 66 68 69 74 78 79 81 84 83 84 85 85 85 85 85 84 84 84 82 80 79 78 75 72
47 54 58 55 45 37 30 27 28 28 28 29 28 26 24 24 26 31 36 33 28 29 28 29 34 27 16 19 19 13 13 12 13 15 15 14 15 18 21 24 28 33 33 31 31 31 34 37 37 39 42 42 44 46 47 48 50 52 54 56 58 61 63 64 66 71 77 80 81 82 82 82 83 85 85 84 83 83 82 83 83 82 80 79 78 75
51 57 61 58 44 34 29 26 28 28 27 29 29 28 27 26 27 28 30 31 30 30 28 31 37 28 18 21 21 16 16 13 11 14 15 14 16 18 22 25 28 34 35 31 31 31 33 36 38 41 44 45 47 47 46 48 50 50 53 55 56 58 60 61 63 69 76 78 78 79 81 82 82 82 83 81 81 81 79 80 83 84 81 79 80 78
59 63 62 59 48 38 33 30 32 30 29 31 33 31 30 30 30 28 28 31 33 30 28 34 37 27 22 29 26 17 16 15 10 10 11 14 17 18 21 25 30 37 38 34 33 34 33 38 43 47 50 50 49 47 46 48 50 50 52 54 54 56 58 60 62 67 73 75 74 76 79 81 80 80 80 79 77 78 78 77 80 82 81 80 80 80
67 70 67 64 54 45 43 44 43 39 36 34 34 34 34 32 32 32 32 33 33 31 30 31 31 24 22 27 25 18 16 16 15 14 12 12 15 17 21 26 30 36 41 38 36 36 37 41 46 51 54 52 47 46 48 50 50 50 52 53 54 55 57 60 62 65 69 71 71 74 77 78 78 77 78 78 76 76 77 76 77 80 81 80 80 80
66 70 68 68 62 54 55 58 52 46 43 38 35 35 35 34 35 38 38 35 34 34 31 29 29 25 20 20 20 19 19 18 18 17 16 16 18 20 23 28 30 33 39 40 38 39 43 46 50 54 55 50 45 45 48 50 49 49 53 54 54 55 57 60 63 66 68 68 69 73 76 76 77 77 77 78 77 76 76 76 76 77 79 80 80 81
68 74 63 61 62 55 53 54 46 43 45 42 38 37 35 35 38 42 41 38 38 35 28 30 35 28 19 21 28 34 37 35 30 27 27 30 32 31 30 30 26 27 33 37 40 43 46 49 52 55 53 48 45 45 46 48 48 49 53 55 54 55 58 60 64 67 69 69 70 74 76 75 77 79 79 79 80 79 78 78 77 78 79 81 81 80
70 75 59 53 57 50 46 46 44 44 44 41 41 40 36 36 42 50 50 44 45 44 35 36 41 35 32 42 50 56 61 61 56 53 52 53 54 54 52 43 29 22 24 31 39 45 47 49 51 55 54 49 45 46 46 47 49 51 54 55 54 55 58 62 66 68 69 70 72 76 77 76 78 82 82 81 82 82 80 80 80 80 81 82 82 81
62 68 60 56 58 53 47 45 44 44 43 41 42 38 37 43 51 59 58 51 50 47 38 38 40 41 54 70 69 66 71 71 68 68 68 68 69 70 67 57 40 26 21 24 33 42 45 47 50 55 58 53 48 47 47 48 50 52 54 54 55 56 58 63 67 68 69 70 74 77 79 79 80 83 83 82 82 81 81 82 83 83 83 84 83 82
60 63 60 60 64 59 48 44 42 41 41 42 41 38 43 55 63 67 67 64 63 55 45 43 39 40 59 75 73 71 72 71 71 73 72 72 74 74 72 66 54 39 25 21 26 36 43 45 49 55 57 55 52 49 48 50 51 51 51 52 55 56 57 63 67 68 68 70 73 77 79 79 80 81 81 81 82 81 82 83 85 85 85 85 85 85
63 64 61 66 74 63 48 45 42 39 41 43 41 46 58 66 72 77 78 78 82 79 67 52 42 51 69 74 73 74 72 71 74 76 76 77 77 77 76 73 68 56 39 25 23 32 40 42 47 53 52 50 50 49 49 51 51 49 49 50 53 54 56 61 64 66 68 70 73 77 78 78 80 82 82 82 82 82 82 84 86 87 87 86 86 87
63 65 64 73 80 66 50 47 45 46 54 53 43 48 63 69 72 78 79 77 80 84 79 67 62 72 79 74 74 76 73 76 83 81 82 86 84 82 79 75 72 67 51 33 24 28 34 37 42 48 48 46 46 47 48 50 50 49 49 51 53 53 56 58 60 64 68 70 74 76 77 79 81 82 83 83 82 82 83 85 87 87 86 85 85 87
65 66 69 79 83 69 53 49 54 63 68 61 49 49 60 66 69 77 81 78 76 77 79 79 78 78 75 71 75 78 76 80 86 83 81 84 86 86 84 77 73 71 58 39 25 23 31 38 42 45 47 46 46 46 46 48 50 50 50 53 54 54 56 58 59 64 69 71 74 75 75 79 81 81 83 83 82 83 84 86 87 86 85 84 85 88
67 68 77 88 86 71 57 58 72 77 69 61 58 56 55 57 62 74 80 75 72 76 79 79 79 76 72 68 66 70 76 77 78 78 77 77 82 86 85 80 74 72 65 46 28 27 36 43 45 46 47 47 45 46 47 48 49 51 51 53 55 56 59 62 62 66 71 72 74 75 75 78 80 81 83 83 82 84 85 86 87 86 84 82 83 86
64 70 81 88 86 76 67 68 76 76 66 61 62 62 61 61 63 72 84 80 71 74 81 83 81 76 71 63 57 61 70 69 68 72 73 72 75 80 84 82 73 70 69 52 35 37 43 42 43 46 46 46 45 46 48 48 49 50 51 52 54 57 61 64 65 68 70 72 72 74 75 77 79 81 82 83 84 85 85 87 87 87 85 83 81 82
59 76 86 87 86 80 71 62 60 70 79 76 71 70 72 73 70 73 88 92 76 69 80 86 83 78 72 65 58 57 62 65 69 72 68 66 69 74 79 80 72 68 67 53 39 43 48 44 43 46 47 46 46 45 47 48 48 49 50 51 54 58 60 63 65 67 70 71 71 72 74 76 78 80 81 83 84 85 85 86 87 87 87 85 81 80
61 78 88 90 86 78 72 65 62 78 94 89 79 74 69 71 71 68 80 94 84 74 81 85 81 80 77 71 64 60 62 72 82 81 71 64 68 74 77 77 73 69 66 56 45 44 49 49 47 48 49 47 45 46 47 48 48 50 51 52 55 58 60 62 64 67 70 70 69 71 74 75 77 79 80 82 84 83 83 84 85 85 86 85 82 79
72 81 89 96 91 78 75 73 70 84 97 92 83 75 65 67 73 70 78 94 91 82 85 86 82 80 79 76 71 67 71 84 93 88 73 67 75 83 82 79 76 72 68 63 52 45 48 51 50 49 49 47 47 48 49 49 51 53 55 55 56 58 60 61 63 65 68 69 69 72 75 75 77 78 79 81 82 81 81 82 82 82 84 83 81 79
89 93 96 97 89 79 77 72 71 84 92 85 80 73 62 67 76 80 89 98 93 86 88 90 86 82 80 78 74 74 83 93 97 89 74 71 82 86 80 77 79 76 71 69 64 56 53 56 55 49 47 48 50 50 52 52 53 55 58 58 57 58 59 61 63 65 67 68 69 73 75 74 76 78 79 81 81 79 79 80 79 80 82 82 79 79
95 96 98 93 80 76 81 76 77 88 87 78 77 73 67 76 87 91 96 98 92 88 89 90 88 84 80 79 78 82 88 89 89 85 76 76 84 82 75 74 77 77 73 73 76 71 60 55 53 47 46 51 53 52 53 55 55 58 62 61 58 57 57 60 64 67 69 69 70 72 73 74 76 78 78 79 79 78 79 79 78 80 81 79 78 78
95 96 98 94 83 79 84 83 87 94 85 74 77 75 73 86 96 94 91 90 88 89 90 90 88 85 82 80 79 84 87 81 79 81 79 80 84 80 74 75 77 78 77 75 78 78 69 62 57 50 49 55 56 54 55 56 58 62 64 62 60 58 58 62 66 68 71 71 70 70 72 75 76 77 77 78 79 80 81 80 79 80 81 79 77 79
97 95 95 95 90 86 86 87 95 99 86 75 81 83 82 89 93 89 86 85 83 86 91 91 87 85 85 83 79 83 85 80 78 82 81 78 75 72 74 77 78 80 81 78 76 77 75 73 70 65 59 56 53 53 54 56 62 66 65 64 63 61 60 64 66 67 70 71 71 71 73 75 76 76 77 79 80 80 81 81 81 81 83 82 81 82
97 95 94 95 92 89 91 93 97 97 87 81 88 93 91 89 86 85 88 88 84 85 91 92 86 82 84 84 81 84 86 83 81 83 81 75 68 66 71 76 78 81 83 83 81 78 76 77 80 79 73 64 59 57 55 58 65 68 67 66 64 62 62 63 63 65 70 72 73 74 74 75 75 76 77 79 80 81 81 83 83 84 86 86 85 85
96 92 93 95 91 90 96 98 95 92 88 84 87 90 88 84 82 83 86 87 87 88 91 92 86 82 81 82 82 86 88 87 84 82 80 77 72 66 66 73 80 82 84 86 87 83 79 78 79 81 81 79 74 68 63 65 70 72 73 70 64 62 63 63 64 67 70 72 73 74 74 75 76 77 77 78 80 81 82 83 84 85 87 87 86 86
89 84 88 93 91 90 94 94 89 87 85 83 84 88 86 82 82 85 85 85 87 87 87 89 88 85 83 82 85 87 87 86 84 80 76 73 69 64 63 71 80 84 84 88 91 88 84 81 79 80 84 86 84 79 75 74 74 75 78 74 67 65 65 65 67 70 72 74 74 73 74 76 77 77 78 79 80 80 81 82 84 86 87 86 85 85
86 81 87 93 91 90 92 91 88 87 86 85 85 85 82 80 82 85 86 86 86 86 86 85 85 85 84 82 83 83 82 81 80 78 74 70 67 65 65 71 81 86 86 90 93 91 89 86 84 84 85 87 89 89 85 81 79 79 80 77 72 70 68 68 70 72 73 73 71 70 72 74 75 78 80 81 81 80 80 82 83 84 85 85 83 82
89 84 89 94 90 85 83 81 81 81 80 80 82 81 78 79 83 85 85 82 80 83 86 82 79 82 85 84 81 79 77 77 75 74 73 73 70 67 66 71 82 87 87 90 94 93 90 88 88 88 86 87 92 94 92 89 87 86 83 80 77 75 76 77 79 79 78 77 75 74 74 74 74 76 78 80 80 79 79 80 81 81 83 83 81 80
86 87 92 93 88 81 77 78 82 83 77 72 74 74 71 74 81 86 85 82 77 78 81 79 77 78 81 82 82 81 80 78 74 69 71 75 74 69 67 71 78 83 85 90 94 95 91 88 87 88 88 90 94 96 95 93 90 88 85 81 77 76 76 78 80 80 82 84 83 82 80 78 77 76 77 79 80 81 81 81 80 79 80 81 81 80
88 95 96 93 90 89 89 89 90 94 91 80 74 71 67 68 77 84 87 86 81 78 80 82 81 79 78 78 81 82 81 78 73 68 71 78 79 73 69 70 72 75 80 87 92 96 95 92 90 89 89 92 94 93 92 91 89 87 85 82 78 74 71 72 76 81 83 86 88 87 85 84 83 82 81 80 80 83 86 88 86 84 82 83 84 82
91 96 95 96 97 95 91 88 89 95 98 86 73 70 68 67 74 83 88 88 84 79 79 84 87 85 81 77 77 79 79 78 74 70 72 78 80 76 71 69 67 68 73 82 91 96 97 96 95 91 89 92 92 90 87 86 85 85 84 82 80 78 74 74 81 85 87 89 92 92 90 90 90 88 86 84 83 86 91 94 95 92 89 88 87 84
Wind_Speed
8 7 9 12 12 13 13 12 12 4 1 4 8 8 8 8 9 6 6 4 3 5 8 10 11 12 12 10 12 14 16 16 15 15 14 14 14 15 16 16 17 18 16 18 23 26 27 27 26 25 25 26 26 25 26 26 27 28 28 27 29 31 32 32 32 30 28 26 25 24 23 23 23 24 23 22 21 18 17 17 15 13 12 11 11 12
8 9 11 14 10 7 8 9 10 9 8 5 5 7 8 9 9 6 4 3 4 5 6 7 10 13 12 11 11 13 15 16 16 17 16 17 17 15 17 19 18 15 13 16 20 24 27 27 27 26 25 27 27 27 27 28 28 29 29 29 29 30 33 34 34 34 33 32 30 28 26 24 21 23 24 22 21 20 18 18 16 14 13 12 11 12
8 11 13 11 7 6 7 9 11 13 14 10 5 5 6 6 5 7 6 4 4 5 6 7 9 11 11 11 11 13 15 15 17 19 18 19 18 15 17 18 17 15 15 17 19 23 27 28 28 27 26 28 28 28 29 29 29 29 29 29 29 30 34 35 35 36 36 35 34 30 29 27 21 21 23 21 20 20 19 19 17 16 14 13 12 13
7 9 12 8 8 10 10 11 13 12 12 12 8 6 6 4 4 6 5 3 4 6 7 6 7 9 9 8 10 15 16 15 16 19 18 17 19 19 19 18 17 19 18 18 19 21 25 28 29 29 27 28 28 28 30 31 30 29 30 31 32 33 36 36 36 37 36 34 33 31 28 27 23 21 22 21 21 22 20 20 19 18 16 14 13 13
6 3 7 10 10 13 13 12 14 11 9 13 13 11 7 6 6 5 2 3 4 7 7 6 7 8 8 9 9 12 15 14 15 16 15 15 16 16 15 16 17 18 18 19 20 21 23 27 29 29 28 28 29 29 30 31 31 30 30 33 36 37 37 37 38 37 35 33 30 27 23 20 19 18 18 18 19 22 23 21 20 20 18 15 14 13
8 1 8 13 14 15 15 13 15 13 8 11 15 16 12 8 8 6 5 5 5 6 6 6 9 8 7 12 12 9 12 14 13 15 17 16 15 13 13 15 17 17 17 18 20 21 22 26 28 29 30 30 31 31 31 31 31 30 30 34 37 37 37 38 38 36 35 33 29 26 22 18 17 16 17 20 21 22 24 22 19 21 19 17 15 13
7 6 8 13 15 17 16 13 15 15 9 8 12 17 16 12 10 10 9 6 5 5 2 4 9 7 4 10 12 9 13 16 15 16 18 16 14 15 14 15 16 17 17 17 19 20 21 25 27 29 32 33 32 31 30 29 30 31 30 34 38 37 37 37 37 37 35 32 30 29 27 23 21 19 21 27 25 23 25 24 21 22 20 18 16 15
8 11 11 12 13 14 14 12 14 16 11 8 8 13 16 15 14 13 11 8 6 5 6 6 8 7 6 7 8 9 13 16 17 17 18 16 16 17 17 16 17 18 18 17 18 20 21 25 28 31 33 34 31 29 28 29 30 31 30 34 38 37 37 37 37 37 37 35 32 32 29 25 25 24 25 28 27 24 24 24 23 22 21 19 18 16
9 14 14 13 12 10 11 11 14 18 13 7 6 10 13 15 16 14 10 9 7 5 9 9 6 7 8 6 5 8 12 15 16 18 19 18 18 19 18 19 19 19 19 19 19 21 22 26 30 32 31 31 30 29 29 30 29 29 30 34 37 37 36 37 38 38 38 37 36 34 29 25 26 26 24 25 25 24 23 22 22 22 21 20 19 18
5 9 11 15 13 10 10 11 13 18 13 6 7 9 10 13 14 12 10 9 8 8 11 10 8 7 9 6 7 8 11 13 13 15 17 18 19 19 19 20 19 18 17 18 20 20 22 28 31 30 29 29 31 30 28 28 27 27 29 33 36 36 35 36 38 38 38 38 36 34 31 27 28 26 22 21 21 23 23 21 21 22 22 22 21 20
5 8 8 12 13 10 9 11 13 17 14 7 7 9 9 9 9 9 9 7 8 10 13 13 11 9 10 8 9 8 7 8 10 11 14 15 17 18 18 18 18 16 16 17 19 19 22 26 28 27 28 30 31 29 28 28 28 28 30 32 34 35 34 34 37 38 38 38 36 35 33 31 30 28 24 21 20 21 23 22 21 23 23 23 23 22
8 11 8 6 10 11 11 10 12 16 16 10 9 8 6 5 5 6 6 7 10 11 11 14 13 11 12 9 7 8 7 9 11 12 14 16 18 18 17 17 17 16 16 17 17 17 18 21 24 27 29 30 31 30 30 30 29 29 30 31 33 34 35 35 37 38 37 36 35 34 34 34 33 30 27 25 22 23 24 23 22 23 24 24 24 24
9 12 8 4 8 14 13 10 9 13 15 12 10 10 8 6 5 7 7 7 11 8 6 10 12 12 13 9 8 7 7 11 13 12 13 16 18 18 18 18 16 16 17 17 16 16 17 18 21 26 29 30 30 31 31 31 30 29 30 32 33 34 37 36 35 37 36 35 35 35 35 35 34 32 31 29 26 26 27 24 23 25 25 25 26 26
9 11 11 10 8 10 14 12 8 9 12 13 12 10 10 8 7 9 9 7 9 7 5 7 8 10 12 9 11 12 11 13 13 11 12 15 17 18 18 18 17 17 17 16 16 17 17 18 20 26 29 29 30 31 31 31 31 30 29 32 33 34 36 36 35 36 36 35 36 38 37 35 35 33 32 31 28 27 28 27 26 27 26 26 27 27
9 9 9 10 4 2 10 14 11 9 10 12 12 11 10 9 8 8 7 7 7 5 6 9 7 7 7 3 5 12 16 16 14 14 13 12 14 15 15 17 17 17 17 16 16 18 19 20 23 26 28 29 30 32 33 32 32 30 30 33 34 33 35 37 36 35 35 36 37 38 37 35 35 34 32 31 31 29 29 29 29 30 29 28 28 28
6 5 1 1 2 1 3 7 9 10 10 10 11 11 11 10 9 6 5 6 5 5 7 9 6 4 2 4 4 5 11 16 17 18 17 14 13 12 12 14 16 16 17 16 17 19 20 20 23 26 27 28 30 32 34 34 33 33 31 33 35 34 35 36 36 35 36 36 35 37 37 35 35 35 32 32 33 32 31 31 30 31 32 30 29 29
4 3 5 6 3 4 1 5 4 8 8 7 11 13 10 9 9 8 6 3 4 9 7 7 9 6 4 10 9 6 7 13 17 18 19 19 15 13 12 13 15 16 17 17 17 19 20 20 23 27 28 29 31 34 36 35 35 35 33 33 34 33 33 35 36 36 35 35 34 36 37 35 33 35 33 32 34 32 30 32 32 31 32 31 30 29
2 6 6 6 4 3 3 5 7 9 7 5 10 12 8 7 9 8 7 5 7 10 6 6 11 10 6 8 8 10 10 12 15 16 18 19 15 14 14 14 16 18 18 19 20 19 19 20 23 27 30 32 35 36 36 35 34 34 34 34 35 34 34 36 36 35 34 35 34 35 36 35 33 34 32 30 31 30 28 30 32 30 30 31 30 29
3 6 5 4 5 3 4 4 7 10 11 9 7 9 9 8 10 9 7 8 9 9 6 6 9 10 9 7 5 11 15 14 13 13 16 17 15 14 15 15 17 18 17 17 18 17 17 18 22 28 31 33 35 34 34 34 34 34 35 35 36 36 36 36 35 33 33 34 33 32 34 36 35 34 32 28 28 29 30 30 30 30 31 31 31 30
3 4 3 1 2 5 2 5 9 10 12 12 8 8 9 8 8 10 8 7 7 7 7 6 7 8 9 8 7 10 15 16 14 11 12 14 14 14 14 14 15 16 15 16 16 17 18 20 24 30 33 34 34 33 32 34 35 35 36 35 34 35 35 35 35 33 33 33 32 30 32 35 35 35 33 29 28 30 31 30 30 31 31 31 31 30
2 3 4 2 3 6 4 6 8 6 6 9 9 10 12 8 4 7 9 8 7 7 6 6 7 7 4 5 10 13 13 16 16 11 10 12 13 14 14 14 14 15 16 16 16 18 20 21 25 31 33 32 32 30 31 33 34 34 34 34 35 34 34 35 35 33 34 34 32 31 32 33 34 35 33 29 29 31 31 30 31 31 30 30 31 30
2 2 4 5 5 6 4 2 2 2 2 2 4 7 10 10 7 8 10 10 9 8 7 6 7 7 3 3 8 13 13 14 16 14 12 11 13 14 14 15 15 15 16 17 18 19 19 20 23 28 30 29 29 30 33 34 34 35 35 35 35 35 34 35 35 33 33 33 32 32 33 32 32 33 31 29 28 29 29 30 32 32 31 30 31 31
4 3 4 7 7 9 11 9 5 3 3 3 4 5 6 7 9 10 9 8 10 10 8 7 8 7 4 3 5 9 10 11 12 13 12 12 12 12 13 15 16 15 16 18 18 18 18 18 21 24 27 30 31 33 35 34 34 36 37 36 35 35 35 36 35 33 33 33 32 33 33 31 30 31 31 29 28 29 29 29 29 31 32 31 29 30
4 4 4 6 6 9 14 11 4 3 4 4 4 4 4 5 5 6 6 4 7 11 9 8 9 7 4 3 4 8 8 8 8 8 10 10 8 8 11 14 15 15 16 17 17 17 16 16 18 18 21 26 28 29 33 33 33 35 35 35 36 36 36 35 34 32 33 34 33 32 31 31 31 31 31 30 29 28 28 27 26 29 32 31 27 28
3 3 2 4 4 6 9 7 4 4 3 1 1 1 2 5 7 7 5 3 6 11 12 10 8 6 3 3 4 10 9 7 9 8 7 7 5 4 5 7 10 11 13 15 16 16 16 16 15 15 16 20 24 27 30 32 33 34 35 36 36 35 35 35 33 32 32 34 33 31 31 31 30 30 31 31 29 29 29 27 25 27 30 29 27 27
4 3 3 4 5 7 7 5 3 1 0 0 1 2 2 3 5 5 3 4 6 9 12 11 7 5 3 3 7 11 9 7 7 6 5 6 7 5 4 4 6 7 9 13 15 15 15 14 14 14 14 19 25 28 29 30 32 33 34 35 35 34 35 34 33 32 32 33 33 32 31 31 31 30 31 31 30 28 28 27 25 25 28 29 28 26
4 5 7 8 8 8 5 2 3 5 5 4 4 4 3 1 2 3 3 5 4 5 9 8 5 6 6 6 6 6 5 6 5 3 3 2 3 4 4 3 5 7 9 11 12 12 12 12 13 14 15 21 28 30 30 31 32 32 32 34 34 33 33 33 32 31 31 32 32 31 31 32 31 31 31 31 30 28 27 27 26 25 26 27 27 26
4 6 9 12 13 13 12 10 9 9 9 9 9 8 6 3 3 3 5 4 4 4 7 5 5 8 6 2 3 6 6 7 6 6 6 6 6 6 6 5 5 8 10 11 11 11 12 12 13 15 16 22 27 29 30 31 32 32 31 33 33 32 32 32 31 31 32 32 32 31 31 32 31 31 31 30 29 29 27 27 27 26 25 26 27 27
4 6 9 12 13 15 16 13 10 10 11 11 11 12 10 7 6 6 9 8 5 5 5 2 2 4 1 4 6 8 9 9 10 9 8 8 8 8 8 9 8 9 11 13 13 13 14 15 15 15 17 21 25 28 29 29 30 29 29 31 32 32 32 31 31 32 31 31 31 31 31 31 30 30 32 30 30 32 30 27 27 27 25 27 29 28
3 6 8 10 12 15 16 13 11 12 14 14 14 14 11 8 8 7 9 11 10 8 8 10 8 1 3 5 8 8 8 9 8 8 8 8 9 10 10 11 11 11 11 13 15 15 16 17 17 16 16 18 22 27 28 28 29 29 30 32 33 32 32 31 31 32 32 32 32 30 31 32 31 31 34 34 34 36 34 30 28 28 28 29 29 28
3 5 6 7 9 12 14 12 12 13 14 14 13 12 9 6 4 3 2 4 6 7 8 12 11 2 3 6 7 7 7 6 6 8 9 8 10 11 11 11 12 13 13 12 15 16 16 17 16 16 16 18 22 27 28 28 29 31 32 32 32 33 32 31 31 32 32 32 31 30 32 36 35 34 35 36 36 36 36 33 29 29 30 30 29 28
3 4 6 6 7 8 8 7 7 8 10 12 13 10 6 2 2 4 6 5 3 3 5 7 7 2 4 8 7 5 5 6 7 9 9 9 10 11 12 12 13 14 15 15 14 15 17 18 17 18 19 21 25 28 28 27 28 30 31 32 33 32 32 31 32 33 32 30 29 31 34 35 34 32 33 35 36 35 36 34 30 28 29 29 28 27
4 5 5 4 6 6 3 2 4 6 7 9 10 9 7 7 7 6 8 9 9 5 4 4 3 5 8 10 7 4 5 6 7 8 8 10 11 12 13 14 14 14 15 15 14 14 18 18 18 20 21 23 28 32 32 31 31 32 33 33 32 32 31 31 32 32 31 28 28 32 35 33 31 31 32 34 36 35 34 32 29 28 28 27 27 26
6 7 5 3 4 5 3 5 5 6 8 3 2 5 7 10 11 10 10 10 9 8 5 4 7 10 10 9 7 6 6 3 5 7 8 10 11 12 13 15 15 15 15 14 15 15 16 16 16 19 23 26 31 32 32 32 31 29 29 29 30 31 30 30 30 29 28 27 28 32 35 32 31 31 31 33 35 34 33 31 29 29 27 26 26 25
8 7 5 3 4 5 5 5 6 7 6 4 7 4 5 9 12 13 11 11 13 13 13 11 12 13 13 11 10 9 7 4 2 7 10 11 12 12 13 15 15 15 15 13 14 15 14 15 14 15 20 26 28 27 27 28 27 26 27 28 29 29 28 28 28 27 27 27 28 32 34 33 32 31 31 33 34 33 32 30 29 29 27 26 25 26
10 7 4 3 4 4 4 4 6 3 4 8 7 8 5 6 7 10 9 12 15 14 13 12 13 14 14 13 11 10 7 6 1 6 11 14 15 15 14 14 15 15 15 12 12 12 12 15 16 17 20 25 27 27 27 28 28 28 27 28 29 28 27 27 26 26 28 29 29 32 34 33 32 31 31 31 31 30 29 29 29 30 28 26 25 24
11 7 4 3 4 4 4 5 4 3 2 6 4 7 5 4 3 4 6 8 11 13 13 12 14 15 15 14 14 13 8 6 2 5 12 17 19 19 17 15 15 15 13 11 10 10 10 12 16 18 20 23 26 27 28 28 29 28 27 28 28 28 28 27 26 27 30 31 31 32 32 32 32 31 30 29 29 29 28 28 29 30 28 27 25 24
11 7 4 4 4 5 5 5 4 4 3 2 5 8 6 5 4 2 5 5 9 14 14 13 14 17 16 16 18 16 7 2 1 6 13 19 21 20 18 16 15 14 12 9 5 10 13 14 18 20 21 23 24 24 26 28 29 28 27 28 28 28 28 28 28 28 29 30 30 30 31 32 32 31 30 29 29 29 29 28 28 29 28 27 27 25
10 6 4 4 4 4 5 5 4 3 1 4 10 11 9 7 6 5 5 4 8 13 13 14 15 16 16 15 17 14 6 2 4 7 13 20 22 19 17 15 15 15 13 11 4 8 15 18 20 22 23 24 24 24 26 28 28 27 26 26 27 28 27 28 29 29 29 30 30 29 31 33 32 32 31 30 30 30 29 29 29 28 28 27 27 26
9 6 6 6 6 6 7 6 3 1 1 8 13 13 10 8 7 8 6 3 8 11 11 13 14 15 15 14 13 11 9 6 6 10 16 21 20 17 14 13 14 15 14 12 10 0 13 20 21 23 24 24 25 26 27 28 28 26 24 25 26 27 27 29 30 29 30 30 28 29 31 32 31 31 30 29 31 30 29 29 28 26 25 25 25 24
6 6 6 7 7 7 8 5 3 1 2 10 15 14 13 8 7 7 4 2 8 10 9 10 12 13 14 13 10 8 8 7 9 12 17 20 18 14 14 14 15 17 15 14 14 8 7 16 20 23 25 25 26 27 28 28 26 24 23 24 25 27 29 30 29 28 28 28 27 27 29 29 29 30 30 31 32 30 27 26 25 24 24 24 24 23
4 5 4 6 7 6 6 5 3 1 3 12 16 14 10 4 5 4 2 3 6 9 9 9 11 11 13 13 10 8 8 10 12 14 16 16 15 13 15 16 16 18 18 16 16 13 5 6 12 16 20 24 27 27 28 28 25 22 23 24 26 29 29 27 27 27 27 26 25 25 26 27 28 30 30 29 29 27 25 24 24 23 24 24 23 23
1 2 2 2 3 4 4 3 2 1 4 13 16 10 5 3 3 3 4 4 5 8 9 9 9 10 11 12 12 11 11 12 14 14 14 15 14 14 16 16 15 16 17 17 16 13 9 6 6 8 13 20 25 26 28 28 24 21 23 24 26 27 25 25 28 28 26 26 26 25 26 27 29 30 29 27 27 26 25 24 23 23 23 23 22 21
4 3 1 1 2 1 1 1 2 2 6 10 9 5 5 6 5 4 5 5 6 7 8 8 9 10 11 12 13 13 12 13 14 15 15 16 16 17 17 16 16 16 16 17 17 14 10 8 7 8 8 12 16 20 24 25 23 21 21 23 26 27 25 27 31 30 27 27 26 25 25 27 29 31 29 27 27 26 25 24 23 22 22 23 22 20
7 7 3 2 4 3 2 4 4 5 7 8 4 2 5 5 4 6 7 6 6 7 7 8 10 12 12 12 13 12 12 13 14 14 14 14 14 15 16 15 16 17 17 18 19 17 13 10 10 10 9 7 8 12 17 19 20 18 16 20 27 29 28 29 31 30 28 26 25 26 25 24 26 29 28 27 26 26 26 24 23 22 22 22 22 21
6 8 5 4 5 4 3 6 7 9 9 6 0 4 4 4 5 7 8 7 7 7 7 7 10 12 13 13 12 11 12 15 15 13 14 14 13 15 16 15 16 18 19 19 20 20 15 13 14 14 13 12 9 9 11 14 17 17 16 20 25 27 27 28 28 27 26 24 24 27 26 24 23 25 26 26 26 27 28 26 23 22 21 21 22 22
6 8 6 5 6 5 3 7 11 13 9 4 5 5 7 8 7 6 6 6 8 9 9 9 10 11 12 12 12 11 13 15 14 13 12 12 13 14 15 15 16 17 18 17 19 20 17 14 13 14 15 15 13 11 12 14 16 18 18 21 23 24 25 26 25 25 24 24 26 28 28 25 24 23 23 24 25 25 26 24 22 21 21 21 21 22
6 7 7 6 7 5 3 7 12 13 7 2 6 7 8 9 10 8 6 6 8 10 10 9 9 10 10 12 12 13 14 14 13 12 11 10 10 12 12 13 15 17 19 20 21 21 19 16 14 14 15 15 13 12 13 14 15 16 17 19 21 22 22 21 20 20 21 22 23 25 26 26 27 25 21 21 22 22 22 22 22 21 21 22 22 22
6 6 7 7 6 4 4 8 13 11 6 4 9 10 9 10 12 12 9 9 10 10 10 10 9 9 10 11 12 12 14 14 13 12 12 10 10 10 11 13 15 18 21 22 21 20 20 18 16 15 15 14 13 12 13 14 13 13 14 16 18 20 20 19 17 16 16 16 15 17 21 22 23 22 19 18 21 22 20 21 23 22 21 22 23 23
7 7 8 7 5 5 7 10 11 8 6 8 13 15 14 13 13 12 12 11 11 12 11 11 11 10 10 11 11 11 12 13 14 13 12 9 9 11 13 15 17 19 21 22 21 21 21 20 17 15 14 13 13 13 14 15 14 12 11 11 13 15 17 18 16 15 15 13 10 12 15 14 14 16 18 19 23 23 19 18 19 21 20 20 22 25
9 9 10 9 7 7 9 11 10 7 6 10 13 15 15 13 13 13 12 10 11 14 13 11 11 12 11 11 12 11 11 13 14 15 12 10 11 13 15 17 17 17 19 20 20 19 20 20 19 17 15 13 12 13 14 15 14 12 9 8 9 10 14 15 14 12 11 10 8 10 12 11 11 15 18 20 22 22 19 15 14 15 17 18 20 23
Wind_Direction
174 187 199 209 212 206 202 204 212 222 359 221 211 220 228 227 238 234 216 238 248 238 230 224 234 241 232 211 195 190 190 196 193 184 185 186 186 188 189 192 193 197 196 188 189 191 191 190 189 188 188 188 190 191 191 190 193 197 199 199 201 205 207 207 209 209 209 211 213 216 219 221 223 225 224 225 227 229 230 227 226 229 231 235 239 239
183 208 214 212 208 190 188 197 208 220 231 240 218 218 227 227 239 248 238 245 236 244 245 233 241 244 240 226 199 186 191 197 195 190 189 190 191 192 192 194 195 193 187 185 189 191 192 192 190 189 189 190 190 191 191 192 195 197 199 201 201 202 205 208 209 209 210 212 213 214 217 219 221 225 225 226 228 230 231 229 227 231 236 239 240 237
201 222 222 205 178 167 188 196 204 216 226 236 233 225 227 214 244 264 254 247 226 237 250 240 246 249 247 237 205 190 196 201 200 196 193 191 191 193 195 194 191 187 185 188 190 190 192 193 191 191 192 193 193 192 193 195 195 195 198 200 200 201 206 208 210 211 212 215 216 217 219 220 221 225 226 226 229 230 232 232 229 232 237 240 239 235
202 226 221 186 158 189 200 195 202 212 222 230 228 228 224 193 221 243 230 226 230 241 254 256 259 256 252 239 209 201 204 204 204 204 199 193 192 195 197 192 188 187 187 188 190 191 193 194 194 194 194 194 194 194 196 196 194 194 197 199 201 204 207 208 211 213 214 215 217 217 221 223 223 228 231 231 233 233 233 234 232 232 235 239 238 235
214 219 192 172 169 197 203 195 202 210 218 224 227 230 225 208 224 243 297 324 262 240 239 249 266 259 240 237 226 207 208 210 206 205 204 202 202 200 195 193 191 190 188 187 190 191 193 195 195 195 194 193 195 196 197 196 195 196 198 201 204 206 208 210 212 213 213 213 214 213 214 219 221 225 228 229 231 233 233 233 233 233 232 235 237 236
231 174 152 169 181 197 205 205 202 206 218 223 224 228 230 229 233 249 280 294 274 238 207 206 249 254 213 227 236 202 197 213 208 203 206 206 205 201 197 197 195 194 192 191 192 192 193 194 194 195 195 195 197 198 197 195 195 197 197 201 205 206 207 210 212 212 211 210 209 205 200 200 204 207 213 219 223 227 229 228 229 232 232 232 236 237
226 203 171 178 190 195 203 213 204 200 217 230 218 216 223 233 239 242 252 255 252 253 224 196 242 255 197 216 229 197 190 207 206 205 209 206 201 201 202 200 195 195 194 194 194 194 194 193 193 195 196 197 198 198 196 194 196 196 196 200 204 205 207 209 210 210 209 207 205 205 203 201 201 202 211 222 224 224 227 226 226 232 233 232 235 236
197 207 195 188 199 201 204 213 199 193 213 235 202 192 207 223 232 235 243 244 251 281 283 250 241 263 250 219 215 200 200 206 204 206 211 208 203 204 206 203 199 197 194 193 194 195 196 195 195 197 197 198 198 196 194 194 195 195 195 199 203 205 206 207 208 209 208 206 205 206 205 204 207 210 216 223 224 225 228 228 228 231 234 234 234 234
174 208 203 189 203 215 213 213 193 191 213 231 174 171 197 215 226 232 239 244 252 274 264 242 220 255 256 215 180 197 210 213 206 206 210 207 205 205 207 206 203 200 197 195 195 195 196 196 198 199 197 196 196 196 195 194 194 193 194 200 203 205 206 207 208 208 208 208 208 207 204 204 211 214 217 221 221 223 226 227 228 230 233 235 235 233
185 222 205 190 208 222 215 216 198 195 213 214 168 179 199 211 220 226 234 243 248 249 251 235 204 237 259 223 185 195 212 215 206 208 212 208 206 206 206 207 204 200 198 198 198 197 196 198 199 199 196 195 195 196 196 193 192 193 193 198 203 204 205 206 208 208 207 208 208 207 205 205 210 212 213 214 215 218 221 222 225 229 231 233 234 234
257 271 232 200 213 213 205 215 208 205 209 188 177 196 202 207 212 220 226 235 245 243 244 237 213 224 259 243 206 203 203 195 194 207 212 208 210 210 209 209 205 199 198 199 200 198 197 198 198 198 197 196 195 194 193 192 192 193 193 196 200 203 203 204 207 207 207 207 206 207 208 208 210 210 209 208 209 213 216 218 221 226 230 231 232 234
227 247 235 211 214 201 201 214 208 210 210 195 196 203 197 198 201 214 211 210 235 243 238 232 219 220 245 246 211 200 183 185 200 207 205 204 209 212 211 211 206 202 200 197 198 197 194 193 195 197 199 197 194 193 192 192 193 193 193 194 196 200 202 203 205 205 205 204 204 206 209 210 211 210 208 208 207 210 214 215 217 223 227 229 231 233
215 230 218 223 216 196 201 210 199 206 210 205 204 198 198 197 187 205 206 206 229 239 232 220 210 220 244 254 233 212 190 204 215 212 202 201 206 209 209 208 205 204 201 196 195 194 190 190 192 195 197 194 192 192 191 191 193 193 192 192 193 198 201 202 202 203 203 202 203 205 208 211 212 211 212 211 210 213 215 213 215 221 224 226 229 230
217 222 211 218 217 199 203 206 199 199 201 205 203 198 201 196 194 207 208 218 229 232 226 203 199 233 253 255 232 222 220 222 224 223 212 203 204 207 206 205 204 203 202 197 193 192 192 191 192 195 195 192 190 191 192 192 193 193 191 191 193 197 200 200 201 202 202 203 205 207 208 209 211 211 212 213 212 214 216 215 218 222 223 225 229 231
223 220 207 204 205 238 215 213 213 197 194 206 203 205 211 203 209 213 206 221 230 233 211 185 186 229 234 240 218 215 220 221 223 227 222 211 208 206 203 203 203 204 202 198 194 193 195 193 192 195 194 191 191 192 193 192 191 191 189 190 193 195 197 199 200 201 201 203 206 208 208 208 210 211 211 214 215 215 217 218 220 224 225 227 231 234
246 243 41 211 271 336 236 238 224 199 201 206 197 208 217 209 211 218 226 230 230 251 223 191 210 239 240 308 296 229 225 219 217 220 217 218 214 203 202 202 201 205 203 198 196 195 196 193 190 192 193 192 192 193 194 193 191 190 189 190 192 194 196 197 199 201 202 203 204 207 208 208 210 211 211 213 216 218 219 220 221 225 229 230 233 237
264 258 7 345 273 155 52 329 269 224 218 188 193 213 212 202 208 220 237 228 220 247 231 193 231 247 275 278 254 215 226 223 218 217 216 218 207 189 198 202 200 206 204 200 198 196 194 190 189 192 193 192 192 193 195 193 190 189 188 189 191 193 194 196 199 201 202 202 203 206 208 208 208 210 211 213 217 217 217 221 224 226 230 232 235 239
298 284 314 307 230 139 9 312 262 252 246 192 199 204 187 192 212 224 235 216 214 238 221 188 230 235 232 249 220 193 211 225 220 215 218 219 204 190 199 202 200 204 203 200 198 194 191 188 190 193 194 195 194 194 194 191 188 188 189 190 191 192 194 196 198 200 201 201 202 204 206 207 208 210 211 212 215 214 213 218 222 223 227 232 235 237
321 290 291 256 237 304 337 261 237 236 231 236 225 187 177 201 207 206 226 226 222 236 231 204 228 237 228 229 211 197 207 223 224 213 217 218 203 200 207 203 200 202 201 199 197 193 190 190 192 193 195 197 197 195 193 190 189 191 192 192 193 195 195 196 197 198 200 201 201 202 205 207 208 209 209 209 210 211 213 216 218 220 225 231 233 235
318 280 252 178 276 306 309 208 221 214 212 230 231 194 197 216 210 202 213 229 228 237 242 219 216 238 235 228 236 221 209 217 221 212 218 217 203 202 208 204 199 198 199 198 198 195 191 193 195 194 195 197 195 193 190 189 191 194 194 193 194 196 195 195 196 196 198 200 200 201 203 205 208 210 209 208 209 212 215 216 218 220 223 228 231 233
301 262 254 300 309 274 228 189 209 208 200 216 218 210 209 205 202 211 215 220 227 235 238 228 227 240 233 206 228 233 218 215 218 214 214 214 205 204 205 202 197 195 199 199 197 196 194 194 196 196 196 195 192 190 188 190 193 194 194 194 194 194 194 194 196 196 197 198 199 200 201 203 206 209 209 209 211 214 215 216 218 220 221 225 230 231
315 275 274 293 286 253 224 145 118 57 24 250 235 228 219 209 201 213 220 214 220 237 234 234 250 248 223 181 218 227 220 213 212 213 215 213 209 206 201 199 197 193 197 198 197 197 195 193 195 195 192 189 188 187 188 191 192 192 194 195 194 194 194 195 196 196 197 197 197 199 201 202 204 207 208 207 210 213 213 215 219 220 220 223 228 231
318 284 270 274 270 268 274 284 301 289 268 262 255 259 264 244 216 217 226 208 208 228 231 239 259 256 230 220 237 237 232 227 218 211 214 215 209 203 199 199 198 194 196 199 198 197 195 193 192 189 183 182 184 185 186 189 191 192 194 193 193 195 196 196 196 195 194 194 197 199 199 200 202 204 206 206 208 211 212 214 216 219 221 221 224 229
311 265 258 270 270 275 272 270 273 230 207 197 223 248 282 281 266 261 264 232 213 218 215 228 247 250 228 203 249 258 249 254 259 242 231 230 215 201 201 199 197 194 195 199 199 197 196 190 183 179 178 179 180 182 184 188 191 192 192 191 193 195 196 195 195 194 193 195 198 198 198 199 201 202 204 206 208 210 211 212 211 215 221 220 219 225
312 257 250 267 248 237 237 218 165 159 168 165 217 216 269 311 324 305 275 265 236 218 213 224 237 249 239 166 231 257 255 253 256 254 253 259 262 240 215 207 203 198 194 195 197 195 190 183 175 174 177 177 179 182 185 188 190 189 190 191 192 194 193 193 193 193 193 195 198 198 198 200 201 202 203 205 208 210 210 209 208 212 218 218 216 221
287 265 252 248 230 214 206 194 184 191 217 316 219 230 283 337 339 311 254 235 235 213 213 228 237 248 240 186 221 242 253 259 245 231 231 239 250 254 238 218 213 209 203 200 198 193 187 183 178 176 178 180 184 187 185 186 188 189 190 191 190 191 191 190 191 192 192 194 196 198 199 200 201 202 204 205 207 208 208 208 207 209 214 216 216 218
273 263 252 251 255 259 266 294 312 311 305 290 282 283 278 293 333 312 228 226 242 216 215 219 224 238 222 195 221 247 268 279 266 252 258 260 283 280 263 236 215 210 208 205 201 194 188 186 181 177 179 183 187 188 186 186 189 189 189 189 189 189 188 188 189 189 189 192 194 196 198 199 200 201 203 204 205 206 206 207 208 209 212 214 215 216
274 261 255 255 259 268 280 291 297 297 287 279 285 288 284 281 286 250 228 260 322 265 226 190 188 234 231 181 310 325 326 313 323 341 337 337 333 317 309 301 264 227 211 202 195 190 190 192 187 180 182 186 188 188 187 187 189 189 188 186 186 187 186 186 185 185 187 189 192 195 196 198 198 200 201 202 202 204 205 206 207 208 210 212 214 216
279 265 263 266 269 273 278 281 284 281 274 270 271 273 277 283 276 254 245 256 274 259 258 294 242 231 299 3 336 335 336 324 325 335 336 331 327 327 322 307 284 250 221 205 196 192 193 194 189 184 182 184 186 185 184 185 186 186 185 183 184 186 186 183 182 183 185 187 191 194 194 194 196 199 201 200 202 206 206 205 207 208 208 212 216 217
263 264 264 272 277 276 275 274 272 269 268 266 262 260 264 270 268 267 254 241 239 242 260 283 289 316 53 354 334 332 331 325 320 328 340 339 337 335 320 303 290 270 241 213 199 196 197 194 190 185 180 181 184 183 182 182 182 182 182 182 183 186 185 182 180 182 185 188 192 193 191 193 196 199 202 204 207 210 210 209 209 210 210 214 218 218
236 262 284 296 285 273 274 274 264 257 258 260 259 251 245 250 262 307 318 254 246 241 246 267 273 254 57 357 336 326 327 332 328 335 344 341 336 330 313 299 289 276 264 237 209 199 197 194 188 181 179 183 185 182 181 181 181 182 184 184 184 185 184 182 181 182 187 191 193 191 193 197 200 202 205 207 210 212 213 212 211 212 214 216 218 218
225 267 296 304 285 273 277 274 262 261 263 260 255 239 213 183 95 64 52 41 3 292 264 271 269 254 10 345 324 320 341 346 340 340 341 334 330 324 311 300 288 275 266 252 228 205 197 194 185 179 183 187 186 184 182 179 178 182 185 186 185 184 184 184 184 185 189 191 189 190 195 198 199 201 204 207 209 211 213 213 210 211 214 215 216 216
236 265 279 281 278 270 265 300 303 291 269 250 234 212 168 113 95 79 55 38 20 349 274 260 297 332 339 327 311 315 339 349 358 353 343 336 329 322 314 306 297 289 274 257 240 216 200 193 187 183 185 185 186 187 185 179 179 183 185 184 182 181 183 185 186 187 189 189 187 190 195 195 195 198 201 205 208 210 210 210 209 211 212 213 214 215
237 248 254 267 272 264 301 327 302 254 236 213 140 173 153 113 99 85 57 35 27 20 359 336 338 335 330 325 317 309 301 327 18 10 357 349 337 326 321 314 306 303 291 266 244 223 202 190 187 186 184 184 185 185 182 181 181 181 180 177 176 177 180 183 184 185 185 186 188 191 194 194 194 197 200 203 206 207 208 208 209 211 212 213 213 213
231 235 238 242 249 269 319 314 248 221 200 118 70 80 120 100 99 100 72 39 33 24 7 354 344 334 328 323 315 304 283 256 45 26 10 356 345 334 325 319 315 312 303 275 240 218 194 180 181 182 181 181 180 176 174 177 177 174 174 173 172 173 174 176 179 181 182 184 187 190 193 194 195 197 199 202 204 205 206 207 208 209 211 212 212 213
227 228 230 236 242 261 288 240 222 221 151 132 76 42 53 62 87 113 88 42 32 24 7 353 342 334 330 324 320 318 297 252 213 30 11 357 347 339 328 323 319 315 307 279 237 208 187 182 182 181 178 176 174 172 171 174 174 172 173 174 173 175 175 174 177 180 183 186 189 191 193 194 195 197 198 199 201 202 204 205 207 209 210 211 213 215
217 213 212 233 234 234 245 241 259 307 188 158 70 25 16 8 24 115 106 55 33 22 9 354 345 342 338 337 339 333 308 257 240 4 0 352 342 333 328 327 323 321 316 289 239 187 163 169 171 168 168 168 171 173 173 173 174 173 173 174 174 175 176 178 182 184 186 189 191 192 193 193 194 196 197 197 198 201 203 205 207 209 209 210 213 215
203 196 188 216 229 233 246 252 254 250 208 151 9 350 339 331 310 199 135 81 30 16 7 356 354 352 348 350 350 340 315 244 335 348 345 341 334 325 325 332 333 332 334 317 241 168 150 152 155 156 160 164 169 172 171 172 171 169 169 172 173 173 176 181 186 187 188 191 192 191 191 193 194 195 195 196 198 201 204 205 208 209 209 210 213 216
187 190 192 224 244 243 236 235 244 233 196 360 337 326 324 311 270 218 155 82 22 12 4 355 356 359 356 355 356 358 14 44 348 331 329 328 322 314 319 337 344 343 349 350 319 173 156 150 151 155 158 162 167 168 166 167 167 164 166 170 172 174 178 185 188 189 190 191 191 191 192 193 195 196 196 197 199 202 204 207 209 210 210 211 214 216
181 191 206 227 243 247 237 236 264 249 13 344 329 320 319 301 248 206 173 86 12 2 359 355 354 357 358 355 360 19 37 19 327 311 315 316 309 305 322 345 351 352 1 3 352 6 154 148 148 157 162 165 167 166 164 164 165 166 167 169 172 176 183 187 188 189 190 190 191 192 193 195 196 196 197 199 201 204 206 208 210 209 208 211 214 217
185 193 208 222 233 242 236 239 276 261 6 341 327 320 320 298 223 187 163 37 354 344 348 355 350 348 352 356 4 18 12 343 313 303 308 311 307 313 340 354 355 1 12 12 5 11 148 156 157 165 169 165 162 164 164 164 166 168 167 167 174 184 188 188 187 186 186 188 190 193 194 196 197 198 200 203 205 206 207 208 209 207 207 211 214 216
194 198 205 217 226 235 231 239 260 184 33 345 328 319 322 297 184 148 54 2 340 338 343 348 343 340 345 351 357 354 336 328 322 314 314 315 312 326 351 358 358 6 15 19 17 16 33 140 152 162 163 159 159 163 166 166 166 167 167 172 183 188 187 185 184 184 184 186 190 193 194 196 199 200 202 205 205 204 205 207 208 207 207 210 212 214
291 224 200 200 222 228 215 219 234 181 6 344 334 331 357 46 104 68 19 7 358 351 346 340 336 336 338 340 342 338 332 330 329 326 324 324 327 342 355 356 359 6 13 20 23 21 26 58 95 122 146 158 164 166 168 169 168 168 173 181 187 185 182 183 185 185 186 189 191 193 195 197 200 203 204 204 203 203 205 207 206 205 206 207 208 211
9 342 309 50 6 290 187 100 10 325 321 328 335 9 57 63 65 41 9 0 360 355 350 340 329 328 333 334 331 331 332 332 333 335 335 336 342 349 350 351 358 4 8 16 22 28 44 61 64 74 109 149 162 166 169 170 169 171 178 184 185 183 183 187 188 187 188 189 192 194 196 198 202 204 205 205 203 204 206 206 205 205 204 204 206 210
15 353 320 331 356 2 62 48 358 314 307 305 301 87 82 67 47 28 11 356 347 346 344 332 323 324 328 328 326 326 328 330 332 336 337 336 340 346 346 348 356 0 3 9 13 20 42 70 79 79 80 92 128 155 166 168 165 166 172 179 184 186 187 187 188 189 190 190 193 195 196 198 201 204 206 205 203 205 207 206 204 204 204 205 207 211
6 1 352 339 338 338 62 48 359 326 324 322 252 109 74 28 3 4 358 345 335 331 326 316 315 318 320 321 324 322 321 326 331 335 335 335 339 346 348 350 354 358 1 6 7 8 22 55 73 77 74 66 75 118 145 157 160 160 164 174 181 185 187 187 189 191 191 192 195 198 199 199 200 203 205 205 204 207 210 207 204 204 205 205 207 211
356 7 12 4 349 336 23 32 360 332 329 19 60 36 8 349 341 345 343 333 325 320 314 306 306 310 313 315 318 314 314 323 331 333 334 338 342 346 348 349 353 354 354 359 5 5 10 31 48 58 66 63 57 74 107 133 146 152 160 169 175 181 186 188 190 193 195 199 202 203 204 203 202 202 202 202 205 209 211 209 205 204 204 203 206 212
339 355 4 359 358 355 357 5 348 325 305 30 35 5 345 335 329 325 323 320 316 311 305 299 301 307 310 310 310 311 313 319 327 331 333 338 342 345 348 348 349 352 352 355 3 8 13 22 30 40 55 58 51 58 83 106 123 135 146 155 162 169 174 179 184 189 194 198 202 205 207 208 208 206 203 202 204 207 208 208 208 208 207 206 207 209
327 348 355 340 339 357 358 352 349 334 305 325 349 343 333 327 320 314 313 316 314 309 303 298 299 301 302 303 304 307 310 314 323 330 332 335 340 345 346 345 348 353 355 356 360 8 16 21 24 33 46 49 44 50 68 83 97 114 130 140 148 153 157 161 166 171 177 182 187 197 204 207 208 208 204 199 199 201 203 206 207 209 212 211 210 210
355 3 357 345 346 4 359 350 348 341 310 311 325 326 323 321 316 310 311 314 312 308 305 303 304 303 300 298 299 304 308 311 318 326 329 331 339 342 343 345 350 354 356 357 360 6 12 13 13 21 33 35 34 45 59 68 78 92 111 132 146 152 156 160 161 161 166 169 168 180 189 192 194 197 197 195 194 193 192 197 202 206 208 210 211 213
9 0 355 353 346 342 344 343 340 329 303 303 313 317 318 319 314 307 303 301 301 302 302 301 303 304 303 300 298 301 304 306 313 322 328 329 334 341 344 347 348 348 351 356 3 7 7 5 4 9 15 17 25 40 51 58 65 74 87 109 135 152 159 163 165 161 159 162 166 172 175 171 173 182 186 187 187 184 179 177 184 193 201 206 210 213